Zurück zum Katalog

STARLINK-34458

AktivKommunikationVLEO
NORAD 64360·PAYLOAD·🇺🇸 United States

Gestartet Jun 13, 2025 von Vandenberg Space Force Base

Loading…

Nächste Überflüge (nächste 24 Stunden)

TLE

AktuellSource: CelesTrak SupGP

Epoche: Sep 15, 2026, 02:57 UTC

1 64360C 25126S   26258.12340278 -.00027406  00000+0 -95324-3 0  2589
2 64360  70.0004 275.1411 0003212 268.5070 296.6970 15.29596961    12

Verfolge STARLINK-34458 in Echtzeit mit AllMySat

Download on the App Store